Wind_Speed
10 10 11 14 16 15 15 15 14 11 13 14 12 14 17 17 16 13 13 15 14 14 13 12 12 10 7 7 5 4 6 7 5 5 6 7 8 9 10 12 14 15 16 15 14 15 15 16 17 17 18 18 19 19 20 21 22 22 22 21 21 20 19 20 22 24 26 28 29 30 32 32 33 35 38 39 40 41 39 35 32 32 33 35 37 37
11 11 14 16 17 16 15 14 12 9 10 11 10 12 14 16 17 15 13 13 14 14 13 13 15 12 9 9 8 7 8 9 6 5 6 6 7 9 11 14 15 15 16 16 16 16 17 17 18 19 20 20 20 21 21 22 22 22 22 21 21 20 20 21 23 25 27 29 30 31 32 33 34 35 37 39 39 40 39 34 32 32 33 35 36 37
10 11 14 15 15 14 12 10 9 7 8 10 11 12 13 15 17 17 14 12 12 13 12 14 16 15 11 9 8 9 10 10 9 8 7 8 8 9 11 14 16 16 17 17 17 17 18 19 19 20 20 21 22 22 23 23 23 23 22 22 22 21 22 23 25 27 29 31 32 32 32 34 35 36 37 38 38 40 38 33 32 32 33 35 35 36
11 13 14 13 11 10 9 9 8 8 10 10 10 11 12 13 13 16 16 13 12 12 12 15 19 20 17 13 11 9 10 11 12 12 10 11 11 11 12 14 16 17 18 18 19 18 19 19 20 20 21 22 23 23 24 24 24 24 24 24 24 23 23 25 28 30 31 33 33 32 33 34 35 35 37 37 38 40 37 33 32 32 33 34 34 35
14 14 12 9 7 7 8 9 8 9 11 11 11 11 12 13 12 15 18 16 14 11 12 16 19 23 21 19 16 11 10 12 11 12 13 14 14 13 13 15 17 19 20 22 21 21 20 21 21 21 22 23 24 25 25 25 25 26 26 26 25 24 25 27 29 31 33 33 33 33 34 35 35 35 36 37 38 40 37 32 31 32 32 33 33 35
15 14 10 8 7 7 7 8 8 10 11 12 13 13 14 14 13 15 17 18 17 13 14 17 18 21 21 20 19 16 14 15 14 14 14 15 15 14 15 16 18 20 22 24 24 23 23 22 21 22 23 24 26 26 26 26 26 26 26 26 26 26 28 29 30 31 32 33 33 34 34 34 34 35 36 37 37 39 35 31 30 31 31 32 32 34
15 12 9 8 7 7 6 6 7 8 8 11 15 15 14 13 10 11 14 16 17 14 14 16 17 19 19 17 18 17 16 18 18 16 15 16 15 15 16 17 19 21 22 24 26 25 24 23 23 23 24 25 26 26 26 25 25 26 26 26 27 28 29 30 31 32 32 33 34 34 33 33 34 34 35 36 37 38 34 30 29 30 31 31 32 34
17 12 10 8 7 6 5 5 4 5 7 14 17 15 13 11 8 7 10 13 15 15 14 15 15 16 16 14 14 15 17 19 19 17 17 17 15 16 17 18 19 19 19 22 25 26 26 26 26 25 25 26 27 28 28 28 27 28 28 28 29 30 31 32 33 34 34 34 35 34 33 33 33 34 34 35 36 37 33 29 28 29 30 30 31 33
23 18 16 14 13 12 11 9 8 9 11 15 15 12 10 9 7 7 10 10 12 14 13 13 14 13 14 14 13 13 16 18 17 16 15 16 18 19 17 15 16 16 16 21 24 26 28 29 28 27 27 27 29 30 31 30 30 30 31 32 32 33 34 34 35 36 36 36 35 35 34 33 34 33 33 34 35 36 33 28 28 28 29 30 31 32
26 24 21 19 16 17 17 16 14 13 12 11 11 9 8 8 8 8 9 7 8 9 9 10 12 11 12 14 15 13 14 16 16 15 15 17 20 19 17 15 17 18 19 22 25 27 30 31 30 30 31 31 32 33 34 33 33 33 34 35 35 36 36 36 37 37 37 37 36 35 34 34 34 33 32 32 34 35 32 27 27 27 28 29 30 32
25 25 25 23 19 18 18 16 14 12 10 10 10 8 6 7 7 7 8 9 9 7 5 8 11 10 10 12 14 14 15 17 17 16 18 19 18 18 20 20 20 21 21 22 25 28 30 30 31 32 33 33 35 36 37 37 37 37 37 37 38 38 38 38 38 38 38 37 36 35 35 35 35 33 31 31 33 34 30 26 26 26 27 28 29 31
26 25 25 25 24 21 19 15 12 11 10 9 8 7 5 5 4 4 5 8 9 8 6 8 10 10 9 9 12 14 17 19 17 17 19 19 19 21 23 22 21 21 21 22 23 26 29 30 32 33 34 35 36 38 39 40 40 40 40 40 40 40 40 40 40 39 39 39 37 36 35 36 37 33 29 30 32 33 29 25 25 25 25 27 29 30
29 28 26 26 26 25 23 19 15 13 13 12 8 7 6 5 3 3 4 5 7 8 8 8 9 11 11 11 11 13 16 18 16 16 17 19 19 19 20 20 20 19 22 24 24 28 32 32 34 37 37 38 39 41 42 43 43 42 42 42 41 41 41 40 40 40 40 40 39 38 36 36 36 31 28 29 31 31 27 23 24 25 24 25 28 30
30 29 29 29 29 29 27 24 21 19 20 20 15 12 11 9 6 5 5 6 6 8 9 8 8 12 14 14 15 16 17 17 17 16 17 19 18 16 17 17 17 20 24 27 29 32 34 34 36 38 38 39 41 43 44 44 44 44 43 42 41 40 40 39 39 39 38 37 37 35 34 34 32 27 26 28 30 30 25 22 23 23 23 24 27 29
27 28 29 30 30 30 30 28 26 25 25 25 23 21 20 16 14 13 11 8 7 7 9 8 8 11 13 14 17 19 18 18 18 16 16 18 18 15 15 17 19 23 27 29 31 33 34 36 38 37 36 38 41 43 43 45 47 45 42 40 38 37 37 37 36 35 34 33 32 31 30 29 27 25 25 27 30 29 23 20 22 22 22 23 25 28
23 25 27 28 29 29 30 30 29 28 29 29 29 30 29 25 21 20 18 13 10 9 9 9 9 11 13 15 17 18 18 18 19 18 16 17 19 17 16 19 21 23 25 28 30 32 35 37 36 36 37 39 41 41 43 46 47 42 38 36 35 34 33 33 32 31 30 30 29 28 27 26 24 23 25 27 30 28 21 19 21 22 22 22 24 27
22 23 24 25 25 26 27 28 29 29 30 31 32 32 33 32 29 28 26 22 18 16 17 17 15 14 16 17 16 16 17 18 17 18 19 19 20 20 20 20 21 21 24 27 28 31 35 35 35 36 37 39 40 41 42 44 42 38 34 33 32 31 30 30 29 29 28 27 26 25 23 22 22 24 26 29 30 26 19 18 20 21 21 21 24 26
19 20 22 22 22 23 23 25 27 28 29 29 30 31 31 32 32 33 33 30 27 26 27 28 26 22 21 20 18 17 18 18 14 15 19 20 19 19 20 21 21 21 24 26 27 31 34 36 36 37 38 39 40 39 40 41 38 34 32 31 30 28 27 28 28 27 25 23 22 21 20 21 23 26 28 30 30 24 17 17 19 20 20 21 23 25
15 17 18 20 21 21 21 23 24 25 25 26 28 29 29 30 30 31 33 33 32 31 31 33 33 29 27 27 25 22 20 18 15 12 14 17 17 17 18 20 22 23 23 24 27 32 36 38 38 37 38 40 38 37 39 38 34 31 30 30 29 26 25 25 25 23 21 20 19 19 20 23 26 28 30 31 29 22 16 15 18 19 20 21 22 25
11 13 14 16 18 19 19 21 22 22 22 23 24 26 27 28 28 29 31 32 33 32 33 35 36 35 33 32 32 30 27 23 18 13 11 12 14 17 19 19 21 22 24 26 30 34 36 37 36 36 38 39 37 37 37 34 31 30 29 29 27 24 23 22 21 19 19 19 20 22 24 27 29 31 31 30 27 20 15 15 17 18 20 20 22 24
9 10 11 13 14 15 17 19 20 21 21 21 22 23 24 25 27 28 29 30 32 32 33 34 36 37 36 35 35 36 34 30 24 18 15 14 15 19 22 22 21 22 25 30 33 34 34 35 36 37 38 37 35 35 34 31 29 29 28 26 25 23 21 20 19 19 20 21 23 25 28 30 32 32 31 28 24 18 13 14 16 18 19 20 21 23
8 9 10 11 11 13 15 16 17 18 20 20 21 22 23 23 25 25 26 27 29 31 31 32 34 35 36 37 37 38 38 36 31 24 21 22 21 22 25 25 23 22 26 31 34 35 36 35 35 36 36 35 34 32 30 28 27 28 27 25 23 22 21 21 21 21 23 24 25 27 31 34 34 31 29 26 21 16 12 13 15 17 19 20 22 23
8 9 9 10 11 12 13 14 15 16 17 18 20 21 22 23 23 23 24 25 26 28 29 31 32 34 36 37 36 36 38 38 36 31 29 28 26 25 27 29 27 24 25 30 35 39 42 39 34 32 33 33 31 28 27 27 26 27 27 25 23 22 22 22 22 23 25 26 26 29 33 36 34 30 27 23 19 14 12 13 14 17 19 20 22 23
9 9 10 10 10 11 13 13 14 14 15 16 18 19 20 21 23 23 23 24 24 25 27 29 30 32 34 35 35 35 36 37 36 33 32 34 32 29 29 30 32 31 28 29 34 40 44 42 35 31 32 32 29 26 26 26 25 26 27 26 25 24 24 24 23 24 26 27 27 29 33 36 33 29 26 22 17 13 12 13 14 16 19 20 22 24
10 10 11 11 11 11 12 13 14 14 15 15 16 17 19 20 21 22 23 24 24 25 26 27 28 29 31 33 35 35 35 34 33 32 32 35 36 32 30 32 35 38 35 31 34 39 43 43 37 32 32 31 28 26 26 25 25 25 25 26 26 25 25 25 24 25 26 26 27 29 32 35 33 29 25 21 16 14 13 13 15 16 18 20 22 24
11 12 11 12 12 12 13 13 14 15 15 16 16 17 18 19 20 21 22 23 25 26 26 26 27 27 28 31 34 35 36 34 31 30 30 32 35 34 32 33 35 37 38 38 38 37 39 42 40 36 34 32 30 29 27 26 25 24 24 25 25 25 25 25 24 24 25 26 27 29 31 33 33 29 25 21 17 15 14 14 15 17 19 20 22 24
11 12 13 13 13 13 14 14 14 14 15 16 16 18 18 18 19 20 21 22 24 25 26 27 28 27 26 29 32 33 35 35 33 31 27 28 32 33 30 31 33 33 34 37 39 37 34 36 39 40 38 34 33 31 29 27 26 25 25 25 25 25 24 24 24 23 24 25 27 29 30 32 32 30 26 22 18 16 15 16 16 17 19 21 22 24
12 12 14 14 14 14 14 14 15 15 15 15 16 17 19 19 19 19 20 21 23 24 25 26 28 28 26 28 31 32 33 35 34 31 27 26 30 32 30 28 29 31 32 33 36 38 39 39 42 45 44 38 34 33 31 29 27 26 27 27 26 24 23 23 23 23 24 25 27 29 30 31 32 30 27 24 20 18 17 17 18 18 20 21 22 24
14 14 14 14 14 15 15 15 15 16 15 16 16 18 19 20 21 21 20 21 21 23 24 25 27 27 27 28 30 31 32 34 34 31 27 25 27 30 30 29 28 31 32 32 34 38 43 45 47 49 49 45 40 35 32 31 29 28 27 27 27 25 23 22 22 23 23 25 27 29 30 32 31 31 29 26 23 21 19 19 19 20 20 21 23 24
16 16 16 15 15 15 16 16 16 17 17 16 17 18 20 21 22 22 22 22 22 22 23 25 26 26 27 28 30 31 31 32 33 32 27 23 25 28 28 29 31 32 31 32 34 37 41 46 49 50 51 50 46 42 37 33 31 30 28 28 27 26 25 23 23 23 23 25 26 28 30 32 32 31 30 29 26 24 22 21 21 21 22 22 22 24
17 17 17 17 16 16 16 16 17 18 18 17 17 18 19 21 22 23 23 23 24 23 23 24 25 26 27 28 29 31 31 30 31 32 28 22 24 27 27 30 32 30 31 34 35 34 37 43 48 49 50 51 50 48 44 38 34 32 30 29 28 27 26 25 23 23 23 24 26 28 30 32 32 31 31 31 30 28 25 23 22 23 23 23 23 24
17 17 17 16 16 16 16 16 16 17 19 18 18 18 19 20 21 22 22 23 24 25 24 24 24 25 27 28 29 31 31 29 29 31 27 24 26 27 28 31 32 30 32 36 35 33 33 38 45 48 48 50 50 50 49 46 40 36 33 31 30 28 27 26 24 24 24 24 26 27 29 31 32 32 32 32 32 31 29 26 24 24 25 25 24 24
18 18 17 17 17 17 15 15 15 16 18 18 17 18 18 19 21 22 22 22 23 24 25 25 24 25 26 27 29 30 31 31 30 29 27 28 29 28 27 30 32 31 33 36 36 34 32 34 42 46 46 48 50 50 50 50 48 43 37 33 31 29 27 26 25 24 24 25 26 28 29 31 32 33 33 33 33 33 32 30 27 25 26 26 26 26
20 20 19 18 19 19 17 16 15 17 17 17 17 17 17 18 20 21 22 22 22 23 24 25 25 25 25 26 27 29 30 31 30 28 28 29 30 31 30 30 32 34 35 36 36 36 34 35 39 44 45 46 48 49 50 50 50 49 44 38 34 31 29 27 26 25 25 26 27 29 31 32 33 32 33 34 34 34 34 33 31 28 27 27 28 27
22 22 21 20 21 21 20 19 19 20 19 19 19 18 17 18 19 21 23 23 24 24 24 25 25 24 25 26 26 27 29 30 30 30 30 30 30 32 32 31 34 36 36 36 36 35 37 38 40 43 45 46 46 48 49 49 50 50 49 45 39 35 32 29 27 26 26 28 30 31 33 34 34 32 32 33 34 35 35 36 35 33 30 28 28 29
25 25 24 23 22 23 23 22 22 23 23 23 23 22 21 21 21 22 24 24 25 25 25 26 25 24 25 26 26 27 28 30 30 30 31 31 32 33 33 32 34 36 36 37 37 35 37 41 42 43 45 46 47 47 47 48 49 49 49 49 46 41 36 32 30 28 28 30 32 33 34 34 34 32 31 32 33 35 36 37 38 37 35 31 29 29
27 27 26 25 25 25 25 25 26 26 26 27 26 25 26 25 24 24 25 25 25 26 26 26 25 25 26 26 26 27 28 29 30 30 30 32 34 34 34 34 34 35 37 38 38 37 38 40 41 42 44 46 47 48 47 47 47 48 48 48 48 46 41 36 33 32 31 33 34 34 34 34 33 31 30 31 32 34 35 36 38 39 38 35 32 30
28 28 28 29 29 28 29 29 29 30 31 30 29 28 28 28 28 28 28 27 27 28 27 25 25 27 28 28 27 27 28 29 30 31 31 33 35 36 36 35 34 35 38 38 38 39 39 40 41 42 43 44 46 47 48 47 46 47 48 47 47 47 46 44 41 38 36 34 34 35 34 33 31 30 30 30 31 33 35 36 37 39 40 39 35 32
30 31 31 32 32 32 32 32 32 34 35 34 33 32 31 32 31 30 29 30 30 30 29 26 26 26 28 28 28 29 30 30 31 31 32 33 34 36 37 38 38 38 39 38 39 40 40 42 43 43 44 44 45 46 48 48 47 47 47 47 47 47 47 47 47 46 44 40 37 35 34 32 30 29 29 29 30 32 33 34 36 37 39 40 38 35
33 33 32 33 34 35 35 35 36 38 38 38 37 36 35 35 34 32 32 32 33 32 30 29 28 28 28 30 31 31 31 31 31 31 32 33 32 33 37 40 42 41 40 38 39 40 41 43 43 44 45 45 46 47 47 47 48 47 47 47 47 47 47 48 48 49 49 47 43 40 36 32 30 29 28 29 30 32 33 34 34 36 38 39 39 37
37 35 34 34 36 37 37 38 41 41 40 40 41 39 39 39 37 35 34 34 34 33 31 31 31 31 30 31 32 32 32 33 33 33 33 33 32 31 34 38 42 43 41 39 39 39 41 42 42 43 45 46 47 48 48 48 48 47 47 48 47 47 47 48 48 49 50 50 49 45 41 36 31 28 29 31 31 31 32 33 34 35 36 38 39 38
41 39 38 38 38 40 42 44 45 43 41 43 44 43 43 43 40 38 37 36 34 34 33 33 34 34 33 33 32 32 33 33 34 35 35 35 33 31 32 36 40 42 41 40 40 39 40 40 40 41 43 44 46 47 48 49 49 48 48 48 47 47 47 47 48 49 49 51 51 50 47 41 32 29 31 32 32 32 32 33 34 35 35 36 38 39
44 43 42 42 42 44 46 46 45 43 43 45 46 45 45 45 43 41 40 37 35 35 36 36 37 36 35 35 35 34 34 34 35 35 36 37 36 35 35 37 40 41 41 41 41 40 40 40 40 40 40 41 43 45 46 47 49 49 49 48 48 48 48 47 47 47 49 50 50 51 51 44 34 31 33 33 33 33 33 33 34 35 36 36 37 38
48 46 46 46 46 47 47 46 45 44 44 45 46 46 46 47 45 44 43 40 39 39 40 39 39 38 38 38 37 37 36 36 37 37 37 37 38 38 39 40 42 42 42 42 42 42 41 40 40 40 40 40 41 42 43 44 46 48 48 48 48 48 49 49 48 47 48 49 49 49 51 47 38 33 34 36 37 36 35 34 35 35 36 36 36 37
50 49 50 51 50 50 48 46 45 45 45 45 45 45 46 47 47 47 47 45 44 44 43 41 42 42 41 40 40 40 39 39 40 39 39 39 40 40 41 42 43 44 44 43 43 43 43 42 41 41 40 40 41 41 41 41 43 45 47 48 48 48 49 50 50 48 48 48 48 48 49 50 45 38 36 39 39 38 37 37 36 36 35 35 36 37
53 53 54 55 54 53 51 49 48 48 47 46 47 46 45 46 48 49 50 49 47 47 46 45 45 45 44 44 43 43 42 42 43 42 41 41 42 42 44 44 45 46 46 45 45 45 45 44 43 42 42 41 42 41 41 41 42 43 45 46 45 46 49 50 50 49 48 48 48 47 48 50 49 45 41 38 37 38 39 38 37 37 36 35 36 37
57 56 57 58 57 56 54 53 52 51 49 49 49 47 46 46 47 50 52 51 51 50 49 49 48 48 47 47 46 45 45 45 44 44 44 44 45 45 46 46 46 47 47 47 46 46 46 46 45 44 43 43 43 42 42 42 41 42 44 45 44 44 46 48 49 49 49 49 48 47 49 50 49 49 46 39 35 36 38 39 40 40 38 37 36 38
59 59 60 60 59 59 58 56 54 54 53 52 50 49 47 47 48 51 52 52 52 52 52 51 51 51 50 50 49 48 48 47 46 46 47 47 48 48 49 48 48 48 48 48 48 47 47 47 47 46 45 45 45 44 43 43 43 43 45 46 45 44 43 45 47 49 49 49 49 47 49 50 49 49 48 44 38 35 36 38 41 41 40 39 38 39
60 61 62 62 61 61 61 59 57 57 56 54 53 51 50 50 51 52 53 53 53 54 54 54 54 54 53 52 52 51 50 49 48 48 49 50 51 51 51 51 50 50 50 50 50 49 49 48 48 47 47 47 47 45 43 44 45 45 45 45 46 46 45 43 45 47 47 48 49 49 49 49 49 49 49 48 43 38 36 38 40 40 40 40 40 41
64 64 64 64 64 64 64 62 61 60 58 57 55 53 53 53 54 54 54 54 54 54 55 57 57 57 56 55 54 54 53 52 51 51 52 53 53 53 54 53 52 51 51 51 51 50 50 50 49 48 48 48 48 47 45 45 46 47 46 44 45 47 48 46 45 46 46 46 48 50 50 49 49 49 50 49 47 43 39 38 39 40 40 40 40 40
68 67 67 67 66 66 67 65 64 63 61 59 57 55 56 57 57 56 56 56 56 56 58 59 60 59 59 58 58 57 55 55 54 54 54 55 56 56 56 56 55 54 53 53 52 52 52 51 50 50 49 49 50 49 48 47 47 48 48 45 44 46 49 48 47 46 46 45 47 50 51 49 49 50 51 51 49 46 42 39 38 39 38 38 37 36
Wind_Direction
71 73 76 75 73 68 64 65 68 56 34 31 23 17 20 21 32 52 62 60 49 30 29 31 28 34 42 39 34 19 9 5 5 18 12 356 341 335 329 318 310 309 312 309 307 308 309 306 303 303 303 304 304 302 301 301 302 304 306 309 312 314 314 314 314 316 317 319 319 318 319 325 331 336 339 341 341 342 343 342 340 341 344 346 347 348
64 77 84 79 71 64 57 52 62 57 25 30 28 17 21 28 37 50 63 62 47 35 34 27 20 25 35 34 28 20 11 4 8 19 3 350 345 338 331 321 313 314 318 318 316 315 314 314 312 311 310 308 305 303 302 303 304 306 308 310 313 314 313 312 314 317 319 322 322 320 321 325 332 336 338 340 341 343 344 342 340 343 346 347 348 350
73 85 81 71 63 61 55 46 55 49 20 32 33 21 22 29 38 45 52 56 49 45 35 21 19 22 24 26 22 17 17 15 15 15 357 348 345 336 331 318 313 318 321 319 317 316 316 316 314 312 310 308 305 305 305 306 308 308 308 311 314 313 310 310 313 316 319 322 322 321 322 326 332 336 338 340 341 343 344 343 342 344 346 347 349 351
91 86 70 61 57 52 48 42 47 38 21 26 26 19 22 29 37 42 44 42 38 41 33 20 22 24 22 19 13 10 18 18 14 12 3 353 348 339 329 315 312 319 320 317 316 316 315 313 312 311 309 308 308 308 309 310 310 309 310 312 313 312 310 310 312 314 317 320 321 321 323 327 332 335 337 340 342 344 345 343 342 344 345 348 350 353
88 78 65 60 57 50 50 43 37 29 17 14 16 21 30 37 41 38 36 32 30 38 29 16 18 21 23 23 18 14 17 16 11 8 0 352 347 340 330 323 323 323 322 323 321 319 317 314 313 313 313 313 312 312 312 313 313 312 312 313 313 311 311 312 313 314 316 320 321 320 323 326 331 335 338 341 342 344 345 343 342 343 345 348 351 354
83 75 61 55 66 72 66 48 40 31 22 23 27 32 40 42 38 31 30 27 26 31 27 19 16 17 21 25 24 22 23 18 9 4 358 351 346 339 332 330 330 327 324 325 322 319 318 315 315 315 315 316 315 314 314 315 315 315 315 314 312 311 312 313 314 314 315 317 318 319 322 326 331 336 339 340 341 343 344 342 342 343 344 348 352 355
84 76 51 42 66 81 77 62 45 30 34 47 45 45 45 41 35 23 20 19 15 19 29 24 15 15 21 24 20 20 22 13 2 360 357 353 349 341 333 329 330 331 327 326 325 322 320 318 318 318 318 319 318 317 317 317 316 316 315 312 310 309 310 311 311 311 312 314 315 318 322 326 332 336 338 339 340 342 343 342 341 343 345 348 352 355
82 75 51 45 66 77 86 92 60 35 52 54 46 47 47 48 62 36 14 15 13 13 23 21 10 9 16 16 11 10 8 1 357 357 354 351 348 338 331 326 329 334 330 327 326 323 322 323 323 323 322 321 320 318 318 317 315 313 312 310 308 308 308 307 308 309 311 312 314 316 320 325 330 335 337 338 339 341 342 341 341 343 345 348 351 355
75 71 62 60 71 79 91 99 88 70 63 52 41 41 44 47 63 45 22 19 13 10 8 6 3 0 1 1 360 1 360 355 353 352 344 337 336 333 330 327 328 331 321 315 319 320 322 325 325 324 323 320 318 317 316 315 313 311 310 308 307 306 306 305 306 307 309 311 312 315 318 322 328 333 336 337 338 340 341 340 341 343 345 348 351 355
71 69 66 66 73 81 83 82 76 69 60 51 43 37 31 27 26 26 22 2 359 12 359 348 357 357 350 348 349 355 357 349 343 341 333 327 329 330 328 323 316 312 307 308 313 317 319 321 322 322 319 316 315 314 314 312 310 308 307 307 307 306 305 305 306 306 308 310 312 315 318 321 326 330 334 336 337 339 340 339 340 342 344 348 352 355
71 68 67 67 71 78 80 77 74 69 57 47 44 37 23 19 15 14 12 349 349 12 348 330 345 345 339 343 347 347 343 335 327 323 321 320 322 323 320 317 314 311 310 311 311 315 319 320 321 321 319 317 315 315 314 312 309 307 306 306 306 306 306 306 306 307 308 310 312 315 317 318 322 327 331 335 336 337 339 338 339 341 344 348 353 355
71 69 67 66 68 72 74 74 74 71 58 48 44 37 28 28 16 354 356 345 346 359 342 325 332 328 322 336 345 339 330 327 321 311 309 312 317 320 319 318 320 323 324 320 315 319 322 320 320 321 320 318 317 316 315 313 310 307 306 305 306 306 307 308 308 308 308 309 310 311 312 314 319 324 329 333 334 336 337 337 338 340 344 349 354 356
70 69 67 65 66 68 69 69 72 70 62 59 57 41 30 32 19 339 349 343 339 353 356 343 331 323 315 316 326 328 324 325 325 314 310 314 316 317 319 319 321 326 329 322 317 319 319 315 316 317 316 315 317 317 316 314 312 310 307 306 307 308 309 309 309 308 308 308 308 308 309 311 317 321 327 332 333 335 336 335 336 339 343 350 355 357
72 70 67 65 65 67 69 68 70 69 64 62 63 54 43 44 37 11 357 340 324 336 349 346 334 329 325 318 315 313 308 307 308 305 306 310 308 306 310 314 315 319 319 315 311 314 315 313 315 316 314 314 316 317 316 315 316 314 310 309 310 311 312 312 312 311 311 310 309 310 311 313 317 321 327 331 332 334 335 333 334 337 342 350 356 357
72 71 68 65 64 64 65 66 67 66 63 62 62 58 53 52 43 26 12 355 340 342 345 341 336 331 323 311 306 306 300 289 284 284 290 300 303 299 296 297 302 309 313 313 313 313 313 314 315 316 316 316 316 317 317 318 318 317 314 314 314 315 315 315 315 315 315 315 314 314 316 318 319 323 328 331 331 332 333 332 333 336 341 350 356 357
67 68 67 65 63 62 62 63 64 63 62 61 61 60 57 56 51 39 33 29 24 21 12 0 351 338 327 319 315 312 303 289 279 276 281 294 303 302 296 292 299 307 311 312 312 312 314 316 316 316 317 318 317 317 319 320 320 319 317 317 317 317 318 319 320 321 321 320 320 320 320 321 323 326 330 331 330 331 332 330 331 334 340 348 355 357
62 63 65 64 62 61 61 61 61 60 60 60 60 60 60 59 57 51 48 48 47 42 35 28 17 1 350 345 338 327 314 303 290 280 282 288 295 301 304 302 303 306 309 310 311 314 317 317 315 315 317 317 317 319 321 321 320 319 319 320 320 320 322 325 327 328 327 326 326 325 325 326 327 330 331 330 330 331 330 328 329 332 338 346 353 357
60 60 63 64 63 60 58 58 58 57 57 58 59 59 58 58 55 52 51 52 53 50 45 38 30 23 19 14 4 350 335 325 310 289 286 290 292 297 302 304 305 306 308 310 312 315 316 317 317 315 315 317 320 323 324 321 319 320 322 325 327 328 329 332 334 334 334 335 335 333 333 332 331 330 329 329 330 330 328 327 327 331 337 343 350 355
55 57 60 63 63 60 57 56 56 54 53 54 55 55 54 55 53 50 49 51 52 50 47 42 37 35 32 28 23 15 4 353 339 315 299 299 302 306 306 307 310 312 312 311 311 310 312 314 316 314 315 318 323 325 322 318 319 324 329 333 335 335 335 336 339 342 345 347 344 341 337 333 330 328 326 328 329 328 326 324 325 329 335 340 347 353
38 46 51 57 60 59 58 56 54 51 49 48 50 51 50 51 52 50 47 48 49 49 47 43 41 40 37 33 31 28 23 18 7 351 331 316 315 323 327 324 320 320 320 321 319 316 314 315 316 316 317 321 324 323 318 318 323 328 333 338 341 340 340 340 343 347 350 349 344 340 336 332 329 326 325 327 327 325 323 321 322 328 333 337 343 350
14 25 35 43 50 54 56 55 52 49 47 44 44 45 45 46 47 47 45 44 44 45 45 43 42 42 40 37 36 34 32 30 26 17 8 360 351 348 348 343 333 330 334 335 333 328 324 322 322 321 321 323 325 321 318 320 327 331 334 340 344 344 344 344 344 344 345 344 341 338 337 334 331 328 326 326 325 322 320 318 320 327 331 334 340 347
355 1 12 22 30 39 49 52 50 48 45 42 41 40 39 38 39 40 39 39 40 40 40 40 39 39 38 38 38 38 37 35 33 29 23 18 13 6 2 359 354 353 355 354 352 347 341 335 330 327 325 325 324 321 321 326 331 332 334 338 342 343 342 341 341 341 340 340 339 339 340 339 336 331 328 326 323 319 317 316 319 325 329 332 336 342
339 342 352 3 8 16 29 39 43 42 39 37 37 37 36 34 33 32 31 32 33 34 34 34 35 35 34 34 35 35 35 36 36 34 29 22 17 13 11 10 8 4 2 1 359 357 354 349 341 335 330 325 323 325 329 333 334 333 334 335 336 335 335 336 336 336 337 337 337 339 342 342 339 335 330 327 323 317 316 316 317 324 329 330 333 338
326 329 336 346 351 358 7 15 24 30 32 30 30 31 33 32 30 27 25 25 25 27 28 28 29 30 31 31 32 31 31 34 36 36 31 25 21 20 19 22 20 13 5 359 355 356 357 354 348 342 333 325 325 333 338 339 336 334 333 333 332 330 330 330 331 332 334 336 336 338 342 345 343 338 334 330 324 317 315 315 316 322 327 330 331 334
317 319 326 332 338 348 354 356 2 11 18 22 23 23 25 27 27 24 21 19 19 20 21 21 23 24 24 26 27 27 28 30 32 33 30 26 24 21 18 22 24 20 16 9 357 352 354 356 354 344 333 330 334 340 342 342 340 335 333 332 332 331 330 329 328 329 332 336 336 336 341 346 346 342 338 333 325 318 316 315 317 320 326 330 331 332
308 311 318 324 329 337 343 346 352 357 1 7 13 16 16 17 20 20 18 16 15 15 15 16 18 18 18 19 20 21 23 24 25 27 28 27 25 23 21 21 21 20 21 21 14 2 354 356 357 348 339 341 346 345 343 342 340 337 334 333 333 333 332 331 329 328 331 334 336 335 339 346 349 346 342 337 328 320 318 316 317 320 325 330 332 332
301 304 309 316 323 329 333 338 346 350 352 354 360 6 6 8 11 13 13 12 11 11 10 11 12 13 14 14 14 14 17 19 18 20 24 24 22 22 23 22 20 18 17 19 20 17 8 3 360 354 351 351 351 350 347 341 338 337 336 335 334 333 333 334 332 331 332 333 334 335 339 346 350 349 345 341 333 325 319 317 318 320 325 330 332 332
292 295 301 308 315 320 325 332 339 343 347 347 349 355 356 358 3 6 6 6 6 5 6 6 7 9 9 9 8 8 10 13 14 15 19 19 16 17 18 16 15 16 13 10 11 14 14 11 7 5 3 360 355 354 353 347 342 339 339 339 338 335 334 335 335 335 334 333 333 336 341 346 350 351 349 344 338 330 322 319 319 320 324 328 331 331
283 288 293 299 307 312 317 324 331 335 342 343 343 346 348 349 353 357 359 0 0 0 0 1 2 4 3 3 4 4 5 6 7 11 17 15 9 9 13 13 10 8 6 4 4 7 9 10 10 10 10 8 3 359 356 354 350 344 342 342 341 340 339 339 339 338 336 335 335 338 344 347 350 353 352 348 342 336 328 321 319 320 322 326 329 330
276 282 287 292 298 304 310 316 321 327 334 339 339 339 341 342 343 348 351 352 355 356 355 355 357 359 359 358 359 0 0 0 1 5 13 15 6 1 3 6 7 3 359 358 359 2 5 7 8 9 10 11 10 6 1 357 355 351 347 345 343 343 343 342 342 340 337 337 338 341 345 348 351 353 355 353 348 341 333 325 320 319 321 323 327 329
269 275 280 285 290 296 302 307 313 320 324 329 334 334 335 335 335 340 345 345 347 350 351 350 351 353 353 352 354 356 357 357 356 357 3 8 5 2 360 359 1 360 357 356 355 355 0 4 5 6 7 10 11 11 8 3 358 355 352 349 346 345 345 344 342 341 339 338 340 343 347 349 351 353 354 355 353 348 340 331 323 318 319 321 324 326
265 269 275 279 284 287 290 295 303 310 312 318 326 327 328 329 328 332 338 341 341 343 344 346 347 348 349 349 349 350 353 355 352 352 357 356 353 357 360 357 357 356 355 355 353 351 354 359 2 3 5 7 8 10 11 10 5 360 355 352 350 346 344 343 341 339 340 339 341 344 347 348 350 352 353 353 354 353 348 340 330 321 318 318 320 323
264 268 273 277 279 280 284 289 293 297 301 308 315 317 320 323 323 326 331 335 336 337 339 342 344 344 345 345 344 345 347 349 348 349 353 348 343 347 352 352 353 353 352 352 352 352 351 352 355 359 2 4 5 7 9 11 11 7 1 356 353 349 345 342 340 340 340 341 341 344 346 346 347 350 352 352 353 354 353 349 341 329 321 317 318 319
265 268 273 277 278 281 289 293 290 291 297 304 309 312 315 316 316 320 324 327 329 331 334 339 341 341 340 340 340 340 341 343 344 344 344 342 340 342 343 344 348 349 348 348 349 351 352 349 348 353 358 0 2 4 6 8 10 10 8 2 356 352 348 343 339 340 341 342 342 343 344 343 343 346 349 351 352 352 354 354 350 342 330 321 318 317
270 272 274 276 278 283 291 296 293 294 299 304 307 312 314 312 313 316 318 322 325 326 328 333 336 337 338 338 337 337 338 339 338 338 337 338 340 340 338 339 343 344 344 345 345 346 350 350 348 348 351 356 358 1 3 5 6 8 10 8 2 356 351 346 343 341 341 340 339 339 339 339 338 340 345 348 349 350 351 353 353 350 342 330 322 319
274 275 274 275 278 285 291 295 294 295 298 302 306 311 312 311 312 312 313 317 322 322 323 327 330 331 334 336 335 334 334 333 332 334 335 335 337 339 336 336 338 338 339 341 341 340 343 347 347 345 345 349 353 357 359 1 3 4 7 9 8 3 357 351 347 343 340 337 335 334 334 334 334 335 339 344 347 347 348 350 352 353 350 341 331 324
275 274 275 275 279 285 291 294 295 294 295 298 304 306 307 310 312 309 309 313 317 318 322 325 325 324 326 331 332 331 330 329 329 331 332 331 332 335 335 334 334 334 335 336 337 337 338 340 342 342 342 345 348 351 354 357 359 1 2 5 7 7 4 357 350 343 337 334 332 329 327 329 331 332 334 340 344 345 346 347 350 352 352 348 339 330
272 269 272 276 279 283 288 292 294 294 294 296 299 300 302 307 309 308 309 311 311 314 320 324 321 318 320 325 328 327 328 328 328 327 327 327 329 331 333 333 330 330 332 333 333 334 335 335 337 338 340 343 344 346 349 352 354 356 358 360 2 5 6 4 359 353 345 339 336 332 327 325 328 330 332 335 341 343 343 345 347 349 351 350 345 337
268 267 271 277 278 279 284 289 292 293 293 295 295 295 298 302 304 306 308 308 306 310 316 318 317 316 317 320 323 322 322 324 324 324 324 324 325 326 328 329 327 327 330 331 330 332 333 333 333 335 337 340 342 343 344 347 349 351 353 355 356 359 1 3 3 2 358 352 346 341 335 329 327 329 331 333 337 341 342 343 345 348 350 351 349 344
266 270 273 276 274 273 278 284 289 290 292 293 292 291 294 298 301 304 304 302 303 307 310 310 312 313 312 314 318 317 318 320 320 319 320 321 322 322 324 323 321 321 326 328 328 328 329 329 330 333 334 335 338 340 341 343 345 346 347 350 352 353 355 357 359 1 1 358 354 348 342 335 329 328 330 333 335 337 340 342 344 345 348 350 350 347
266 269 270 271 270 269 272 279 284 287 290 290 288 288 291 295 300 302 300 298 300 302 303 302 306 309 309 311 315 315 315 316 316 315 316 318 319 319 320 318 314 315 321 325 325 324 325 326 327 329 330 331 334 336 338 340 341 342 343 345 347 348 349 351 353 355 357 358 357 354 348 341 333 328 328 331 333 335 337 340 342 344 345 348 349 348
263 264 265 267 268 268 270 275 280 284 286 285 284 286 290 293 296 298 297 295 295 295 296 298 301 303 305 308 312 314 314 315 314 313 313 314 314 312 310 308 308 311 317 319 320 321 321 322 324 325 326 328 330 333 335 336 338 339 340 340 342 343 344 346 348 350 352 354 356 356 352 346 336 326 324 326 329 332 334 336 340 342 343 345 348 348
259 262 264 266 268 269 271 275 278 281 284 283 283 286 288 290 293 295 295 294 292 291 293 295 296 298 301 304 308 312 314 314 313 313 312 311 310 308 306 304 306 310 313 314 315 317 319 320 322 323 323 324 326 328 330 332 334 335 336 337 338 338 339 340 343 345 347 348 350 353 354 351 338 323 321 323 325 328 331 333 336 339 340 342 344 347
257 261 264 266 269 271 273 275 277 278 280 281 283 286 287 288 291 293 292 292 290 289 290 292 293 295 298 301 304 308 311 311 312 314 313 310 308 306 304 304 305 306 308 309 311 313 315 317 319 320 321 321 320 321 324 326 328 330 332 333 334 334 333 334 337 340 342 343 345 348 351 351 342 327 320 319 320 322 325 327 330 333 336 339 341 343
255 259 263 266 269 271 273 274 274 276 278 280 282 284 285 287 289 290 291 291 289 288 289 290 291 293 295 298 301 304 307 308 310 312 313 311 309 307 304 303 303 303 304 305 307 309 311 314 315 317 318 317 316 316 318 320 322 325 327 328 330 330 329 329 332 335 337 338 340 342 345 347 346 337 324 316 316 318 320 321 325 328 330 334 337 338
255 259 263 266 269 270 271 272 272 275 278 279 280 281 283 285 287 288 289 289 288 287 287 289 290 291 294 296 298 301 303 305 307 310 310 311 311 310 307 305 303 302 303 304 304 305 307 309 311 312 313 313 313 313 314 315 318 321 322 323 325 327 327 327 328 332 334 334 336 338 339 341 344 344 336 323 314 314 316 318 321 325 327 328 331 333
257 261 263 266 267 269 270 271 272 274 276 277 277 279 281 283 285 286 287 287 287 286 287 288 289 291 292 294 295 298 300 302 304 306 307 309 311 312 311 309 305 302 301 302 303 303 304 305 306 308 309 310 310 310 311 312 314 316 316 318 321 324 325 326 327 329 331 331 332 333 334 335 338 343 343 334 318 312 314 316 317 320 323 325 327 328
260 262 263 264 266 268 269 270 272 273 275 276 276 277 279 281 283 283 284 284 285 286 286 286 287 289 290 291 293 296 298 299 301 303 304 307 310 312 313 312 309 304 301 300 301 301 301 302 303 304 305 306 307 308 308 309 310 312 313 315 318 320 321 323 324 325 327 328 328 329 330 330 332 337 341 339 329 316 312 313 314 316 318 320 322 324
258 259 261 263 265 267 269 270 271 272 273 275 276 276 277 279 280 281 282 283 283 284 285 285 286 287 288 289 291 293 295 296 298 300 302 304 308 310 312 312 311 307 302 299 298 299 299 300 301 302 303 303 304 304 305 305 307 309 312 314 315 315 315 317 318 320 323 325 325 325 325 325 327 330 335 338 336 326 314 309 310 312 314 315 316 318
256 257 260 262 264 266 268 269 270 271 272 274 275 276 277 278 279 280 282 282 283 283 283 283 283 285 287 288 289 290 292 293 295 297 299 302 305 307 309 310 311 309 305 302 299 298 297 298 299 300 301 302 302 302 301 302 304 307 310 311 311 310 310 312 314 316 319 321 322 321 320 321 322 325 329 333 336 334 322 310 305 307 310 312 313 315
256 257 260 262 263 265 266 267 269 270 271 272 274 275 276 276 278 279 280 282 283 282 281 281 282 284 286 287 287 288 290 291 293 295 298 300 303 305 306 308 308 307 307 305 302 298 296 296 296 298 299 300 300 299 298 299 302 305 306 307 307 307 308 309 312 313 314 316 317 317 316 317 318 321 324 328 332 334 330 318 308 307 310 312 313 316
Height
10736 10735 10734 10733 10734 10734 10734 10733 10733 10733 10732 10731 10731 10730 10729 10728 10727 10726 10726 10726 10726 10726 10725 10725 10724 10723 10722 10722 10722 10721 10722 10722 10720 10719 10717 10716 10715 10714 10713 10712 10711 10711 10710 10709 10708 10707 10706 10705 10704 10703 10702 10701 10700 10699 10698 10697 10695 10694 10693 10692 10690 10688 10687 10684 10682 10680 10678 10676 10673 10670 10667 10665 10662 10659 10655 10652 10648 10644 10640 10636 10633 10629 10627 10623 10619 10616
10738 10737 10736 10735 10735 10734 10734 10734 10734 10734 10734 10733 10732 10731 10730 10729 10728 10727 10727 10727 10727 10726 10726 10725 10724 10724 10723 10722 10722 10722 10722 10721 10720 10719 10718 10716 10715 10715 10714 10712 10712 10711 10710 10709 10708 10707 10706 10705 10704 10703 10702 10701 10700 10699 10697 10696 10695 10693 10692 10690 10689 10687 10685 10683 10681 10679 10677 10674 10671 10668 10665 10663 10661 10657 10654 10650 10647 10643 10639 10635 10631 10628 10625 10622 10618 10615
10739 10738 10737 10737 10737 10736 10736 10736 10735 10736 10735 10734 10733 10732 10731 10730 10729 10729 10728 10728 10728 10727 10726 10725 10725 10724 10723 10723 10722 10722 10721 10721 10720 10719 10718 10717 10717 10716 10713 10712 10712 10711 10710 10709 10708 10707 10706 10705 10704 10703 10702 10701 10699 10698 10697 10695 10694 10692 10690 10689 10687 10686 10684 10681 10679 10677 10675 10673 10670 10667 10664 10661 10659 10655 10652 10649 10645 10641 10637 10633 10630 10627 10624 10621 10618 10614
10739 10739 10739 10738 10738 10738 10738 10737 10737 10737 10736 10735 10735 10734 10733 10732 10731 10730 10729 10729 10728 10727 10726 10726 10725 10724 10723 10723 10722 10722 10721 10721 10720 10719 10719 10718 10717 10716 10714 10712 10712 10711 10710 10709 10708 10707 10705 10704 10703 10702 10701 10699 10698 10697 10696 10694 10693 10691 10689 10687 10686 10684 10682 10680 10678 10675 10673 10671 10668 10665 10662 10660 10658 10654 10651 10647 10643 10639 10636 10632 10629 10626 10623 10620 10617 10613
10741 10741 10740 10740 10740 10739 10739 10738 10738 10737 10737 10736 10736 10735 10734 10733 10732 10730 10729 10729 10729 10728 10727 10726 10725 10724 10723 10722 10722 10721 10721 10720 10720 10719 10719 10718 10717 10716 10715 10713 10712 10711 10710 10709 10708 10706 10705 10703 10702 10701 10700 10698 10697 10696 10695 10693 10691 10690 10688 10686 10684 10683 10681 10679 10676 10674 10672 10669 10666 10663 10661 10658 10656 10653 10649 10645 10642 10638 10634 10631 10628 10625 10622 10619 10616 10612
10743 10742 10742 10741 10740 10740 10740 10739 10738 10738 10738 10737 10736 10735 10734 10733 10732 10731 10730 10730 10730 10729 10727 10726 10725 10724 10723 10723 10722 10721 10720 10720 10720 10719 10718 10718 10716 10715 10715 10714 10713 10712 10710 10709 10707 10706 10704 10703 10701 10700 10699 10697 10696 10695 10693 10692 10690 10688 10686 10685 10683 10681 10679 10677 10675 10672 10670 10668 10665 10662 10659 10656 10654 10651 10647 10644 10640 10637 10633 10630 10627 10624 10621 10618 10615 10611
10744 10744 10743 10742 10741 10741 10741 10740 10739 10739 10738 10737 10736 10735 10735 10734 10733 10732 10732 10731 10730 10729 10728 10726 10725 10725 10724 10723 10722 10721 10720 10719 10719 10718 10718 10717 10716 10715 10715 10714 10713 10712 10710 10708 10707 10705 10703 10702 10700 10699 10697 10696 10695 10693 10692 10690 10688 10687 10685 10683 10681 10679 10677 10675 10672 10670 10668 10665 10663 10660 10657 10654 10652 10649 10646 10643 10639 10636 10633 10629 10626 10624 10620 10617 10614 10610
10746 10746 10745 10743 10741 10741 10741 10740 10740 10741 10739 10738 10737 10736 10736 10736 10734 10733 10733 10731 10730 10729 10728 10727 10726 10726 10725 10724 10723 10721 10719 10719 10719 10718 10717 10717 10716 10716 10714 10713 10712 10710 10709 10708 10706 10704 10703 10701 10699 10698 10696 10695 10693 10692 10691 10689 10687 10685 10683 10681 10679 10677 10675 10673 10670 10668 10665 10663 10660 10658 10655 10652 10650 10647 10644 10641 10638 10635 10631 10628 10625 10623 10619 10616 10613 10609
10748 10748 10747 10744 10743 10742 10742 10741 10741 10741 10740 10740 10739 10738 10737 10736 10736 10735 10734 10732 10731 10730 10728 10727 10727 10727 10725 10725 10724 10722 10720 10719 10719 10718 10717 10716 10716 10715 10714 10713 10711 10710 10709 10707 10705 10703 10702 10700 10698 10696 10695 10693 10692 10690 10689 10687 10685 10683 10681 10679 10677 10675 10673 10671 10668 10666 10663 10661 10658 10655 10653 10650 10648 10646 10643 10640 10637 10634 10630 10627 10625 10622 10619 10615 10612 10608
10750 10749 10748 10746 10745 10744 10743 10742 10742 10742 10742 10741 10740 10739 10738 10737 10736 10736 10735 10733 10733 10732 10730 10728 10728 10728 10726 10725 10724 10723 10721 10720 10718 10717 10716 10716 10715 10715 10714 10713 10711 10711 10709 10706 10704 10702 10701 10699 10697 10695 10694 10692 10690 10689 10687 10685 10683 10681 10679 10677 10675 10673 10671 10669 10666 10663 10661 10659 10656 10653 10651 10648 10647 10644 10641 10638 10635 10632 10629 10626 10623 10621 10618 10615 10611 10607
10753 10752 10750 10748 10747 10746 10745 10744 10744 10743 10743 10741 10740 10739 10738 10737 10737 10736 10735 10733 10733 10732 10731 10730 10730 10729 10727 10725 10724 10723 10721 10720 10718 10716 10715 10714 10714 10714 10714 10712 10711 10710 10708 10705 10703 10701 10700 10698 10696 10694 10692 10690 10689 10687 10685 10683 10681 10679 10677 10675 10673 10671 10669 10666 10663 10661 10658 10656 10653 10651 10648 10646 10645 10642 10640 10637 10634 10631 10628 10625 10622 10620 10617 10614 10610 10607
10756 10754 10753 10751 10750 10749 10747 10746 10745 10744 10743 10742 10740 10740 10739 10738 10737 10736 10735 10734 10733 10732 10731 10730 10730 10729 10727 10726 10724 10723 10722 10720 10718 10715 10714 10714 10714 10714 10713 10712 10710 10708 10707 10705 10703 10701 10699 10697 10695 10693 10691 10689 10687 10685 10683 10681 10678 10676 10674 10672 10670 10668 10666 10663 10660 10657 10655 10653 10650 10648 10646 10644 10642 10640 10638 10635 10632 10630 10626 10624 10621 10619 10616 10613 10610 10606
10759 10757 10755 10754 10753 10751 10750 10749 10747 10746 10745 10743 10742 10741 10739 10738 10738 10736 10735 10734 10733 10732 10731 10730 10730 10729 10727 10726 10725 10724 10723 10720 10717 10715 10714 10714 10714 10714 10712 10711 10710 10708 10707 10705 10703 10701 10699 10697 10695 10693 10690 10688 10686 10683 10681 10678 10676 10673 10671 10669 10667 10664 10662 10659 10657 10654 10651 10649 10647 10645 10643 10641 10640 10638 10636 10633 10631 10628 10625 10623 10620 10618 10616 10613 10609 10606
10761 10760 10758 10756 10755 10753 10752 10751 10749 10748 10746 10745 10743 10743 10741 10739 10738 10737 10736 10735 10734 10733 10732 10731 10731 10729 10727 10725 10725 10724 10722 10720 10717 10716 10715 10714 10714 10713 10712 10710 10709 10708 10707 10705 10703 10700 10698 10696 10693 10691 10689 10687 10684 10682 10679 10676 10673 10671 10668 10665 10663 10661 10658 10656 10653 10650 10648 10646 10644 10642 10640 10639 10637 10636 10634 10631 10629 10626 10624 10621 10619 10617 10615 10612 10609 10605
10764 10762 10760 10759 10757 10756 10754 10753 10751 10750 10748 10747 10745 10744 10742 10740 10739 10738 10737 10736 10734 10733 10733 10732 10731 10730 10728 10726 10724 10722 10721 10719 10717 10715 10715 10714 10713 10712 10711 10709 10708 10707 10706 10704 10701 10699 10696 10694 10691 10690 10688 10686 10683 10680 10677 10674 10671 10668 10665 10662 10660 10658 10655 10653 10650 10647 10645 10643 10641 10639 10638 10637 10635 10634 10632 10630 10628 10625 10622 10620 10618 10616 10614 10611 10608 10605
10766 10764 10762 10760 10759 10758 10757 10755 10754 10753 10751 10749 10747 10745 10743 10742 10741 10740 10738 10736 10735 10734 10734 10733 10732 10730 10728 10725 10724 10721 10719 10717 10716 10714 10714 10713 10711 10710 10710 10709 10707 10706 10704 10702 10700 10697 10695 10693 10690 10688 10686 10683 10681 10678 10675 10672 10669 10666 10663 10660 10657 10655 10653 10650 10648 10645 10643 10641 10639 10638 10636 10635 10633 10632 10630 10628 10626 10623 10621 10619 10617 10615 10613 10611 10608 10605
10768 10766 10764 10762 10761 10761 10759 10758 10756 10755 10752 10751 10749 10747 10746 10745 10744 10742 10740 10738 10737 10736 10735 10734 10732 10730 10728 10725 10723 10721 10718 10716 10715 10714 10713 10712 10711 10709 10709 10708 10707 10706 10704 10701 10699 10696 10694 10692 10689 10686 10683 10681 10679 10676 10673 10670 10667 10664 10661 10658 10656 10654 10651 10649 10646 10644 10641 10639 10638 10636 10635 10633 10632 10630 10628 10626 10624 10622 10619 10617 10616 10614 10612 10610 10607 10605
10769 10768 10766 10765 10763 10763 10761 10760 10758 10756 10755 10753 10751 10750 10749 10747 10746 10745 10743 10740 10739 10738 10736 10735 10733 10730 10728 10726 10724 10721 10718 10715 10715 10714 10712 10711 10710 10710 10709 10708 10706 10705 10703 10700 10698 10695 10693 10691 10688 10684 10682 10680 10677 10674 10671 10669 10666 10663 10659 10657 10654 10652 10650 10647 10645 10642 10640 10638 10637 10635 10634 10632 10631 10629 10627 10624 10622 10620 10618 10616 10615 10613 10612 10609 10607 10604
10770 10769 10768 10766 10765 10764 10763 10761 10759 10758 10757 10756 10754 10752 10751 10749 10748 10747 10745 10743 10741 10739 10738 10736 10734 10731 10728 10727 10725 10722 10719 10716 10714 10714 10713 10711 10710 10710 10709 10707 10705 10703 10702 10700 10698 10695 10693 10690 10687 10683 10681 10679 10676 10673 10670 10668 10665 10662 10658 10655 10653 10651 10649 10646 10644 10642 10640 10638 10636 10635 10633 10631 10629 10627 10625 10622 10620 10618 10616 10615 10614 10612 10611 10609 10606 10604
10770 10769 10769 10768 10766 10765 10764 10762 10761 10760 10759 10758 10756 10754 10753 10751 10750 10748 10746 10745 10743 10741 10739 10737 10735 10732 10730 10729 10726 10723 10720 10717 10715 10714 10712 10711 10710 10710 10710 10708 10705 10703 10702 10700 10698 10695 10692 10689 10686 10683 10680 10677 10674 10672 10670 10667 10664 10660 10657 10655 10652 10650 10648 10646 10644 10642 10640 10638 10636 10635 10633 10630 10628 10625 10623 10620 10618 10616 10615 10614 10613 10611 10610 10608 10606 10603
10769 10769 10769 10768 10767 10766 10765 10763 10762 10761 10760 10759 10757 10756 10754 10753 10751 10749 10748 10746 10744 10742 10740 10738 10736 10734 10733 10731 10728 10725 10722 10719 10716 10715 10713 10712 10712 10710 10709 10707 10706 10704 10702 10699 10697 10694 10691 10688 10684 10681 10678 10675 10674 10672 10669 10666 10663 10659 10657 10655 10652 10650 10649 10646 10644 10642 10640 10638 10636 10634 10632 10629 10626 10623 10620 10618 10616 10615 10614 10613 10612 10611 10609 10607 10605 10603
10769 10769 10768 10768 10767 10767 10765 10764 10763 10761 10760 10759 10758 10757 10755 10754 10752 10751 10749 10748 10746 10743 10742 10740 10738 10736 10734 10732 10729 10727 10724 10721 10718 10717 10715 10714 10712 10711 10709 10707 10705 10703 10700 10698 10695 10693 10689 10685 10682 10679 10676 10674 10674 10672 10668 10664 10662 10659 10657 10655 10653 10651 10649 10647 10645 10642 10640 10638 10635 10633 10630 10627 10624 10621 10618 10616 10615 10613 10612 10612 10611 10610 10608 10606 10604 10602
10768 10768 10768 10767 10767 10766 10765 10764 10763 10762 10761 10759 10758 10757 10756 10754 10753 10752 10750 10749 10747 10745 10744 10742 10740 10737 10735 10733 10730 10728 10725 10723 10720 10718 10716 10715 10713 10712 10710 10707 10703 10700 10698 10696 10695 10692 10688 10684 10681 10678 10676 10675 10674 10671 10666 10663 10661 10659 10657 10655 10653 10651 10649 10647 10645 10642 10640 10637 10635 10632 10629 10626 10622 10619 10616 10615 10613 10612 10611 10611 10610 10609 10607 10606 10604 10601
10768 10768 10767 10767 10767 10766 10765 10764 10763 10762 10761 10760 10758 10757 10756 10755 10753 10752 10750 10749 10748 10746 10745 10743 10741 10739 10737 10735 10732 10729 10727 10724 10721 10719 10718 10716 10713 10711 10709 10707 10703 10700 10697 10696 10694 10691 10688 10686 10682 10679 10677 10676 10673 10669 10665 10662 10660 10659 10657 10655 10653 10651 10649 10647 10645 10642 10640 10637 10634 10632 10629 10625 10621 10618 10616 10614 10612 10611 10611 10610 10609 10608 10606 10605 10603 10601
10767 10767 10767 10766 10766 10765 10764 10763 10762 10761 10760 10759 10758 10757 10756 10754 10753 10752 10750 10749 10747 10746 10745 10743 10742 10739 10737 10735 10733 10731 10728 10726 10723 10721 10719 10716 10713 10710 10708 10705 10702 10700 10697 10694 10692 10691 10690 10689 10685 10682 10679 10676 10671 10667 10663 10661 10660 10658 10657 10655 10653 10651 10649 10647 10644 10642 10639 10637 10634 10631 10628 10625 10621 10618 10615 10613 10612 10611 10610 10609 10608 10607 10606 10604 10602 10600
10765 10765 10765 10765 10765 10764 10764 10763 10762 10760 10759 10758 10758 10756 10755 10754 10753 10752 10751 10749 10747 10746 10744 10743 10742 10740 10738 10736 10734 10732 10730 10727 10725 10723 10720 10718 10715 10711 10708 10705 10702 10700 10698 10696 10693 10693 10695 10693 10688 10684 10680 10674 10669 10665 10663 10661 10659 10658 10656 10654 10652 10650 10648 10646 10644 10641 10639 10636 10633 10631 10628 10625 10621 10618 10616 10613 10612 10611 10609 10608 10607 10606 10605 10603 10602 10600
10763 10763 10763 10763 10763 10763 10762 10762 10761 10760 10759 10758 10757 10755 10754 10754 10753 10752 10750 10749 10747 10746 10744 10743 10741 10740 10738 10736 10734 10733 10731 10729 10726 10724 10722 10720 10718 10715 10711 10707 10705 10703 10702 10700 10699 10700 10702 10701 10694 10686 10679 10672 10668 10665 10662 10660 10659 10657 10655 10653 10651 10649 10647 10645 10643 10640 10638 10635 10633 10630 10628 10625 10621 10618 10616 10614 10612 10610 10609 10608 10607 10605 10604 10603 10601 10599
10762 10761 10761 10761 10761 10761 10761 10760 10759 10759 10758 10757 10756 10755 10754 10753 10752 10751 10750 10749 10747 10746 10744 10742 10741 10739 10738 10736 10735 10734 10732 10730 10727 10725 10722 10720 10719 10717 10714 10711 10709 10707 10706 10705 10704 10703 10702 10700 10695 10687 10678 10672 10669 10665 10663 10660 10658 10656 10654 10652 10650 10648 10646 10644 10641 10639 10637 10635 10632 10630 10627 10624 10622 10619 10616 10614 10612 10610 10609 10607 10606 10605 10603 10602 10601 10599
10760 10760 10760 10760 10759 10759 10759 10758 10758 10757 10757 10756 10755 10754 10753 10752 10751 10750 10749 10748 10747 10745 10744 10742 10741 10739 10738 10737 10736 10734 10732 10730 10728 10726 10723 10721 10719 10718 10716 10714 10711 10709 10708 10707 10703 10700 10696 10694 10691 10685 10678 10674 10670 10666 10663 10661 10658 10656 10654 10651 10649 10647 10645 10642 10640 10638 10636 10634 10632 10629 10627 10624 10621 10619 10616 10614 10612 10610 10609 10607 10605 10604 10603 10601 10600 10598
10758 10758 10758 10758 10758 10757 10757 10756 10756 10755 10755 10754 10753 10753 10752 10751 10749 10748 10748 10747 10746 10744 10743 10742 10741 10739 10738 10737 10736 10735 10733 10731 10728 10726 10723 10721 10720 10718 10716 10714 10711 10708 10708 10706 10701 10697 10694 10691 10688 10684 10680 10675 10671 10668 10664 10661 10658 10655 10653 10651 10648 10646 10644 10642 10640 10638 10636 10634 10631 10629 10626 10624 10621 10619 10616 10614 10612 10610 10608 10607 10605 10603 10602 10600 10599 10597
10756 10756 10756 10756 10756 10755 10755 10754 10754 10753 10753 10752 10752 10752 10751 10750 10748 10747 10746 10745 10744 10743 10742 10741 10740 10739 10738 10737 10735 10734 10733 10731 10728 10726 10724 10722 10720 10718 10716 10713 10711 10709 10707 10704 10700 10696 10693 10690 10687 10684 10681 10677 10673 10669 10665 10662 10659 10655 10653 10650 10648 10645 10643 10641 10639 10637 10635 10633 10631 10629 10626 10623 10621 10619 10616 10614 10612 10610 10608 10606 10604 10603 10601 10599 10598 10596
10754 10754 10754 10754 10754 10754 10754 10753 10753 10752 10751 10751 10751 10750 10749 10749 10748 10746 10746 10744 10743 10742 10741 10740 10739 10738 10737 10736 10735 10733 10732 10731 10729 10726 10724 10722 10720 10717 10715 10713 10711 10709 10707 10703 10700 10697 10694 10691 10688 10686 10682 10678 10674 10671 10667 10663 10659 10656 10653 10650 10647 10645 10643 10641 10639 10637 10635 10633 10631 10628 10626 10623 10621 10618 10616 10614 10612 10610 10608 10606 10604 10602 10600 10598 10597 10595
10751 10751 10752 10752 10752 10752 10752 10752 10752 10751 10750 10750 10750 10749 10748 10747 10746 10745 10744 10744 10743 10741 10740 10739 10737 10736 10735 10734 10733 10732 10731 10730 10728 10726 10724 10722 10719 10717 10715 10712 10710 10708 10706 10703 10700 10697 10694 10691 10689 10686 10683 10679 10676 10672 10668 10664 10660 10657 10653 10650 10647 10645 10643 10641 10638 10637 10635 10632 10630 10628 10626 10623 10621 10618 10616 10613 10611 10609 10607 10605 10603 10601 10599 10597 10595 10594
10748 10749 10749 10750 10750 10750 10750 10750 10750 10750 10749 10749 10748 10748 10748 10746 10745 10744 10743 10742 10741 10740 10739 10737 10736 10735 10734 10732 10732 10731 10729 10728 10727 10725 10723 10721 10718 10716 10714 10712 10709 10707 10705 10702 10699 10696 10693 10690 10687 10686 10684 10681 10677 10673 10669 10665 10661 10658 10654 10651 10648 10645 10642 10640 10638 10636 10634 10632 10630 10628 10625 10623 10620 10618 10616 10613 10611 10609 10606 10604 10602 10600 10598 10595 10593 10592
10745 10745 10746 10747 10747 10747 10747 10748 10748 10747 10747 10747 10746 10746 10746 10745 10744 10742 10741 10740 10739 10738 10737 10736 10734 10733 10732 10731 10730 10729 10728 10727 10725 10723 10721 10719 10717 10715 10713 10710 10708 10706 10704 10701 10698 10695 10692 10688 10685 10684 10683 10681 10678 10674 10670 10666 10662 10659 10655 10652 10648 10645 10642 10639 10637 10635 10633 10631 10629 10627 10625 10622 10620 10618 10615 10613 10610 10608 10606 10604 10601 10599 10597 10594 10592 10590
10741 10742 10743 10744 10744 10744 10744 10745 10745 10744 10744 10744 10743 10743 10743 10742 10742 10741 10739 10738 10737 10736 10735 10734 10733 10731 10731 10729 10728 10727 10725 10724 10723 10722 10720 10717 10716 10714 10711 10709 10707 10705 10703 10700 10698 10695 10692 10688 10685 10684 10682 10680 10677 10674 10671 10667 10663 10660 10657 10653 10649 10645 10642 10639 10637 10635 10633 10630 10628 10626 10623 10621 10619 10617 10615 10612 10610 10607 10605 10603 10600 10598 10595 10593 10590 10588
10738 10738 10739 10740 10741 10741 10742 10742 10742 10741 10741 10740 10741 10740 10739 10739 10739 10738 10737 10736 10735 10734 10732 10732 10730 10729 10728 10727 10726 10725 10723 10722 10721 10720 10718 10716 10714 10712 10710 10708 10706 10704 10701 10699 10697 10694 10692 10689 10686 10684 10682 10679 10675 10673 10670 10668 10664 10661 10657 10654 10651 10647 10643 10640 10638 10635 10632 10630 10627 10625 10622 10620 10618 10616 10614 10611 10609 10607 10604 10602 10599 10597 10594 10591 10589 10586
10733 10734 10735 10736 10737 10738 10738 10739 10739 10738 10737 10737 10738 10737 10736 10736 10736 10735 10734 10733 10733 10731 10730 10730 10728 10727 10726 10725 10724 10723 10721 10720 10718 10717 10716 10713 10711 10710 10709 10707 10705 10702 10700 10697 10695 10693 10690 10688 10685 10683 10681 10677 10674 10672 10669 10667 10664 10661 10658 10655 10652 10648 10644 10641 10638 10635 10632 10629 10626 10623 10621 10618 10617 10615 10612 10610 10608 10606 10603 10601 10599 10596 10593 10590 10588 10585
10729 10730 10732 10732 10733 10733 10734 10735 10735 10734 10733 10734 10734 10734 10733 10733 10733 10733 10732 10731 10729 10728 10728 10727 10726 10725 10723 10722 10721 10720 10719 10718 10716 10714 10713 10711 10709 10707 10706 10704 10702 10700 10697 10695 10692 10690 10688 10685 10683 10681 10678 10676 10673 10671 10668 10666 10663 10661 10658 10655 10652 10648 10645 10641 10638 10634 10631 10628 10625 10622 10619 10617 10615 10613 10611 10609 10607 10605 10602 10600 10598 10595 10593 10590 10587 10584
10724 10726 10728 10729 10729 10728 10729 10730 10731 10731 10730 10730 10730 10729 10729 10729 10729 10730 10729 10727 10726 10725 10725 10724 10723 10722 10721 10720 10719 10718 10716 10715 10714 10712 10710 10709 10707 10705 10703 10701 10699 10697 10695 10693 10691 10688 10685 10683 10680 10677 10675 10673 10671 10669 10667 10664 10662 10659 10657 10654 10651 10648 10645 10641 10638 10634 10631 10627 10624 10621 10618 10616 10613 10611 10609 10608 10606 10604 10601 10599 10597 10594 10592 10589 10586 10583
10720 10722 10724 10726 10725 10724 10725 10726 10726 10727 10728 10727 10725 10725 10725 10725 10726 10727 10726 10724 10723 10722 10722 10721 10719 10719 10718 10717 10716 10715 10713 10712 10711 10709 10708 10707 10705 10703 10701 10699 10696 10693 10691 10690 10689 10687 10684 10682 10679 10676 10673 10670 10668 10666 10664 10662 10660 10658 10655 10652 10650 10647 10644 10641 10637 10634 10631 10627 10624 10621 10618 10615 10612 10610 10608 10606 10604 10602 10600 10598 10596 10594 10591 10588 10585 10582
10716 10718 10719 10720 10721 10720 10720 10722 10722 10724 10725 10723 10720 10721 10722 10721 10722 10723 10722 10721 10721 10719 10718 10718 10716 10715 10714 10713 10713 10712 10710 10709 10708 10706 10705 10704 10703 10701 10699 10697 10694 10691 10689 10687 10686 10685 10683 10680 10678 10675 10673 10670 10667 10664 10662 10659 10658 10656 10653 10650 10647 10645 10642 10640 10636 10633 10630 10627 10624 10621 10617 10613 10610 10608 10606 10604 10603 10601 10599 10597 10595 10593 10590 10588 10585 10582
10711 10713 10714 10714 10715 10715 10716 10717 10718 10719 10720 10718 10716 10717 10717 10716 10718 10719 10718 10718 10717 10716 10715 10714 10712 10711 10710 10709 10709 10708 10706 10705 10704 10703 10701 10700 10699 10698 10696 10694 10691 10689 10687 10684 10683 10682 10680 10678 10675 10673 10671 10669 10666 10664 10661 10658 10655 10653 10651 10649 10646 10643 10640 10638 10635 10632 10629 10626 10624 10621 10617 10614 10611 10609 10606 10604 10602 10600 10598 10596 10594 10592 10589 10587 10584 10581
10705 10707 10708 10708 10709 10709 10711 10713 10714 10714 10715 10714 10712 10713 10713 10712 10713 10713 10713 10713 10713 10712 10711 10710 10708 10707 10706 10705 10704 10704 10703 10701 10700 10699 10698 10696 10695 10694 10692 10690 10688 10686 10684 10682 10680 10678 10677 10675 10673 10670 10668 10667 10664 10662 10660 10657 10654 10652 10649 10647 10644 10641 10638 10635 10633 10631 10628 10625 10623 10620 10618 10615 10613 10610 10606 10603 10600 10598 10597 10594 10592 10590 10588 10586 10583 10580
10699 10701 10701 10701 10703 10705 10706 10708 10709 10708 10709 10709 10708 10709 10709 10708 10707 10707 10707 10707 10707 10706 10706 10705 10703 10701 10702 10701 10700 10699 10699 10697 10695 10695 10694 10692 10690 10689 10687 10686 10684 10682 10680 10679 10677 10674 10672 10671 10670 10668 10666 10664 10662 10660 10658 10655 10653 10650 10648 10645 10642 10639 10636 10632 10630 10629 10627 10624 10621 10619 10617 10614 10611 10609 10605 10601 10598 10596 10595 10593 10591 10589 10587 10584 10582 10579
10693 10695 10695 10695 10697 10699 10701 10702 10703 10703 10705 10704 10703 10703 10704 10704 10703 10701 10700 10701 10701 10700 10700 10700 10698 10696 10696 10696 10696 10695 10694 10692 10691 10690 10689 10687 10686 10684 10682 10681 10679 10677 10675 10674 10673 10670 10668 10667 10666 10664 10662 10660 10658 10656 10654 10652 10650 10647 10645 10643 10641 10638 10635 10631 10628 10626 10624 10622 10619 10617 10615 10612 10610 10607 10604 10600 10596 10594 10592 10590 10588 10587 10585 10583 10580 10578
10687 10690 10688 10688 10691 10693 10694 10696 10697 10698 10699 10698 10697 10698 10699 10698 10697 10696 10694 10695 10694 10694 10694 10694 10693 10692 10691 10691 10691 10690 10689 10688 10687 10685 10684 10683 10682 10680 10678 10676 10674 10672 10670 10669 10668 10666 10664 10663 10662 10661 10659 10657 10654 10653 10650 10649 10647 10644 10642 10640 10638 10636 10634 10630 10626 10623 10622 10619 10617 10615 10612 10610 10608 10605 10601 10598 10595 10592 10590 10588 10586 10584 10583 10581 10579 10576
10682 10682 10679 10680 10684 10686 10686 10689 10691 10691 10692 10692 10693 10693 10693 10693 10691 10690 10689 10689 10689 10688 10688 10688 10687 10687 10686 10685 10685 10684 10683 10682 10682 10680 10679 10677 10677 10675 10674 10672 10670 10668 10666 10664 10663 10661 10660 10658 10657 10656 10655 10653 10651 10649 10647 10644 10643 10641 10638 10636 10634 10633 10631 10628 10625 10622 10619 10617 10614 10612 10610 10607 10605 10604 10600 10596 10593 10590 10588 10586 10583 10582 10580 10579 10577 10575
10674 10674 10672 10674 10677 10678 10679 10683 10685 10684 10684 10685 10686 10687 10687 10686 10685 10684 10684 10684 10683 10683 10683 10682 10681 10680 10680 10679 10679 10678 10677 10676 10676 10675 10673 10672 10671 10670 10669 10667 10665 10663 10661 10659 10658 10656 10655 10654 10652 10651 10650 10648 10646 10645 10643 10641 10638 10636 10635 10633 10630 10628 10627 10626 10623 10620 10618 10615 10611 10609 10607 10604 10602 10601 10599 10595 10591 10588 10586 10584 10581 10579 10578 10576 10574 10572
10665 10666 10666 10668 10670 10671 10672 10675 10676 10677 10678 10678 10679 10681 10680 10678 10678 10678 10678 10678 10678 10678 10677 10675 10674 10674 10674 10673 10673 10672 10671 10670 10669 10669 10668 10666 10665 10665 10663 10662 10660 10658 10655 10654 10652 10651 10649 10648 10647 10646 10645 10643 10641 10639 10638 10637 10634 10632 10630 10630 10628 10624 10621 10620 10619 10617 10615 10613 10609 10605 10603 10601 10599 10598 10596 10594 10591 10587 10584 10581 10578 10576 10575 10573 10571 10570
10657 10659 10660 10662 10664 10664 10664 10666 10668 10669 10670 10671 10673 10674 10673 10670 10670 10672 10672 10671 10672 10671 10670 10668 10667 10668 10667 10667 10666 10666 10665 10664 10663 10662 10662 10660 10659 10658 10658 10656 10655 10652 10650 10648 10647 10645 10644 10643 10642 10641 10640 10638 10636 10634 10632 10631 10629 10627 10625 10625 10625 10622 10617 10615 10614 10612 10611 10610 10607 10602 10599 10598 10595 10593 10592 10591 10588 10586 10582 10578 10575 10573 10572 10570 10568 10567